sat.trackr.live / text

‹ back to catalog

STARLINK-3691

NORAD 51960 · 2022-025E

PAYLOAD ACTIVE UNKNOWN

§ Identity

Operator
Country
US
Launch date
2022-03-09
Launch site
AFETR
Launch vehicle
Mass (kg)
RCS (m²)

Purposes: comms

External: N2YO · Heavens-Above · Gunter

§ Orbital elements

Epoch: 2026-05-25T02:59:15.600768Z

Period
94.01 min
Inclination
53.1616°
Eccentricity
0.0001181
Mean motion
15.31716087 rev/d
Perigee alt
469.9 km
Apogee alt
471.5 km
Semi-major
6,848.8 km
B*
1.4415e-6
RAAN
41.1834°
Arg perigee
87.6411°
Mean anomaly
272.4725°
Rev number
23,254

§ Raw data

STARLINK-36911 51960U 22025E   26145.12448612 -.00000320  00000+0  14415-5 0  99932 51960  53.1616  41.1834 0001181  87.6411 272.4725 15.31716087232548

JSON: /api/v1/satellites/51960 · /tle

For live sub-satellite position, see the globe view (requires WebGL).

§ Visibility from observer

Set your observer location to see the next 7 days of passes ≥ 10°. The values pass through the URL so the page stays shareable.

No JS? Fill the form by hand. The geolocation button needs JavaScript.